LiveATC.Net - Listen to live air traffic control over the Internet!


ICAO: KARR  IATA: ARR   Airport: Aurora Municipal Airport
City: Chicago/Aurora   State/Province: Illinois
Country: United States   Continent: North America
KARR METAR Weather: KARR 081352Z 00000KT 7SM CLR M04/M05 A3026 RMK AO2 SLP256 T10391050
KARR ADS-B Flight Tracking  (ADSBExchange)
KARR Flight Activity (FlightAware)
KARR Airport Info   (iFlightPlanner)
KARR VFR Sectional Chart   (iFlightPlanner) 
KARR IFR Low Altitude Chart   (iFlightPlanner) 
KARR IFR High Altitude Chart   (iFlightPlanner) 

KARR Tower
Feed Status: UP   Listeners: 0
Listen in your browser - HTML5 player (in browser, HTML5)
Click here to listen with your own player (launches your MP3 player)
Archive Access: KARR Tower
FacilityFrequency
Aurora Tower120.600

NOTICE

Unauthorized use prohibited. See LiveATC.net Terms of Service


Airport/ARTCC Code
Frequency Search
(e.g., 124.400, 128.75)
Site-wide search
 


Browse Feeds
Top 50 Feeds
HF Oceanic Feeds
Coverage Map
Bad Weather Areas

LiveATC FAQ
Offer LiveATC feed
Contact LiveATC.net
Press Inquiries

LiveATC on iPhone
LiveATC on Android

LiveATC Mobile
(Mobile browser)

ATC Audio Archives
Interesting Recordings

LiveATC Forums


Home Page
About LiveATC.net


Terms of Use
Privacy Policy

AIRMETs/SIGMETs

FAA Airport Status
NAS Status
Arrival Demand


Server Software By:
Icecast.org
Liquidsoap